Regional Weather Roundup
Issued by NWS Northern Indiana

Home | Current Version | Previous Version | Text Only | Print | Product List | Glossary On
Versions: 1 2 3 4 5 6 7 8 9 10 11 12 13 14 15 16 17 18 19 20 21 22 23 24 25 26 27 28 29 30 31 32 33 34 35 36 37 38 39 40 41 42 43 44 45 46 47 48 49 50
000
ASUS43 KIWX 220610
RWRIWX

KIWX WEATHER ROUNDUP
NATIONAL WEATHER SERVICE NORTHERN INDIANA
200 AM EDT MON SEP 22 2014

NOTE: "FAIR" INDICATES FEW OR NO CLOUDS BELOW 12,000 FEET WITH NO
SIGNIFICANT WEATHER AND/OR OBSTRUCTIONS TO VISIBILITY.

* THESE STATIONS ARE NOT UNDER NWS QUALITY CONTROL. THEY ALSO MAY NOT
  REPORT WEATHER SUCH AS PRECIPITATION OR FOG.

INZ001>027-220700-
NORTHERN INDIANA

CITY           SKY/WX    TMP DP  RH WIND       PRES   REMARKS
GARY*          MOCLDY    57  48  70 N10G18    30.15R
VALPARAISO     CLEAR     52  46  80 N5        30.14R
6HR MIN TEMP:  52; 6HR MAX TEMP:  58; 6HR PCP: TRACE;

MICHIGAN CITY* MOCLDY    54  41  62 N14G22    30.14R
LAPORTE*       PTCLDY    51  44  77 N7        30.13R
6HR MIN TEMP:  51; 6HR MAX TEMP:  56;

KNOX*          PTCLDY    47  44  91 CALM      30.12R
6HR MIN TEMP:  47; 6HR MAX TEMP:  69;

SOUTH BEND     MOCLDY    50  43  77 NE7       30.13R
6HR MIN TEMP:  51; 6HR MAX TEMP:  56;

GOSHEN         CLEAR    N/A N/A N/A N7        30.12R
MONTICELLO*    CLEAR     48  47  99 NW3       30.12R
6HR MIN TEMP:  47; 6HR MAX TEMP:  58;

LOGANSPORT*    CLEAR     46  45  93 CALM      30.13R
ROCHESTER*     CLEAR     50  46  87 N3        30.12R
WARSAW*        CLOUDY    46  43  87 N7        30.12R
ANGOLA*        CLOUDY    46  36  66 NW6       30.10R
FORT WAYNE     PTCLDY    48  41  76 N15       30.11R
6HR MIN TEMP:  48; 6HR MAX TEMP:  57;

HUNTINGTON*    CLEAR     47  43  84 N9        30.11R
6HR MIN TEMP:  47; 6HR MAX TEMP:  56;

PERU/GRISSOM   CLEAR     50  50 100 N2        30.11R
6HR MIN TEMP:  50; 6HR MAX TEMP:  58;

MARION*        CLEAR     49  45  86 NW3       30.11R
6HR MIN TEMP:  40; 6HR MAX TEMP:  90;


$$
INZ028>050-220700-
CENTRAL INDIANA

CITY           SKY/WX    TMP DP  RH WIND       PRES   REMARKS
LAFAYETTE      PTCLDY    50  49  96 CALM      30.13R
6HR MIN TEMP:  49; 6HR MAX TEMP:  59;

KOKOMO*        CLEAR     50  45  81 NW6       30.12R
6HR MIN TEMP:  50; 6HR MAX TEMP:  57;

MUNCIE*        CLEAR     48  45  89 NW6       30.10R
6HR MIN TEMP:  48; 6HR MAX TEMP:  57;

INDIANAPOLIS   PTCLDY    55  48  77 N9        30.10S
6HR MIN TEMP:  54; 6HR MAX TEMP:  62;


$$
MIZ043>046-050>051-056>058-064>065-071>073-077>080-220700-
SOUTHWEST LOWER MICHIGAN

CITY           SKY/WX    TMP DP  RH WIND       PRES   REMARKS
BATTLE CREEK   CLOUDY    47  36  65 N14G23    30.11R
6HR MIN TEMP:  47; 6HR MAX TEMP:  56;

BENTON HARBOR  CLOUDY    49  42  77 E6        30.13R
6HR MIN TEMP:  49; 6HR MAX TEMP:  55;

COLDWATER*     CLOUDY    48  39  71 N12       30.10R
6HR MIN TEMP:  48; 6HR MAX TEMP:  57;

HILLSDALE*     CLOUDY    48  41  77 N7        30.09R
HOLLAND        CLOUDY    49  40  71 N6        30.15R
6HR MIN TEMP:  48; 6HR MAX TEMP:  53;

GRAND RAPIDS   CLOUDY    48  39  71 NW10      30.13R
6HR MIN TEMP:  48; 6HR MAX TEMP:  52;

KALAMAZOO      CLOUDY    47  38  71 N10       30.12R
6HR MIN TEMP:  45; 6HR MAX TEMP:  55;

STURGIS*       CLEAR     43  39  87 NW7       30.11R
THREE RIVERS*  FAIR      45  40  82 N5        30.12R
6HR MIN TEMP:  45; 6HR MAX TEMP:  55;


$$
OHZ001>008-015>018-024>025-220700-
NORTHWEST OHIO

CITY           SKY/WX    TMP DP  RH WIND       PRES   REMARKS
WAUSEON*       CLOUDY    48  43  81 N14G24    30.08R
DEFIANCE       CLOUDY   N/A N/A N/A N12       30.08R
FINDLAY        LGT RAIN  51  47  86 N20       30.05R
6HR MIN TEMP:  53; 6HR MAX TEMP:  60; 6HR PCP: TRACE;

TOLEDO EXPRESS CLOUDY    49  42  77 NW13G20   30.06R
6HR MIN TEMP:  49; 6HR MAX TEMP:  56; 6HR PCP:  0.01;

TOLEDO METCALF CLOUDY    51  41  68 N15G22    30.06R
6HR MIN TEMP:  51; 6HR MAX TEMP:  58; 6HR PCP:  0.03;

LIMA           CLEAR     51  46  83 NW8       30.06R
6HR MIN TEMP:  51; 6HR MAX TEMP:  60;


$$
AND FOR LAKE MICHIGAN COASTAL AND OPEN LAKE BUOY OBSERVATIONS

STATION/POSITION TEMP    WIND        PRES    VSBY  WAVE
                 AIR SEA DIR/SP/G                  HT/PER
                 (F)     (DEG/KT/KT) (MB)    (MI)  (FT/S)
CALUMET HARBOR    56     360/ 11/ 15 1019.4R
MICHIGAN CITY     56     360/ 23/ 29   N/A
SAINT JOSEPH      55     350/ 17/ 23 1021.0R
SOUTH LAKE BUOY   54 61  350/ 19/ 25 1020.7R         7/ 8
4 MI NW BRIDGMAN  56 65  360/ 19/ 27   N/A           8/ 6
MICHIGAN CITY     57 64   20/ 17/ 23   N/A           8/ 7

$$
&&



USA.gov is the U.S. government's official web portal to all federal, state and local government web resources and services.